Time,TemperatureF,DewpointF,PressureIn,WindDirection,WindDirectionDegrees,WindSpeedMPH,WindSpeedGustMPH,Humidity,HourlyPrecipIn,Conditions,Clouds,dailyrainin,SoftwareType,DateUTC
2013-06-10 00:02:00,62.0,62.0,-100.00,East,90,4.0,6.0,99,0.00,,,-99.99,,2013-06-10 05:02:00,
2013-06-10 00:12:00,62.0,62.0,-100.00,ESE,105,4.0,7.0,99,0.00,,,-99.99,,2013-06-10 05:12:00,
2013-06-10 00:22:00,62.0,62.0,-100.00,ESE,105,4.0,7.0,99,0.00,,,-99.99,,2013-06-10 05:22:00,
2013-06-10 00:32:00,62.0,62.0,-100.00,ESE,105,4.0,6.0,99,0.00,,,-99.99,,2013-06-10 05:32:00,
2013-06-10 00:42:00,62.0,62.0,-100.00,ESE,105,4.0,6.0,99,0.00,,,-99.99,,2013-06-10 05:42:00,
2013-06-10 00:52:00,62.0,62.0,-100.00,ESE,105,4.0,5.0,99,0.00,,,-99.99,,2013-06-10 05:52:00,
2013-06-10 01:02:00,62.0,62.0,-100.00,ESE,105,4.0,5.0,99,0.00,,,-99.99,,2013-06-10 06:02:00,
2013-06-10 01:12:00,62.0,62.0,-100.00,ESE,110,4.0,6.0,99,0.00,,,-99.99,,2013-06-10 06:12:00,
2013-06-10 01:22:00,62.0,62.0,-100.00,ESE,120,5.0,7.0,99,0.00,,,-99.99,,2013-06-10 06:22:00,
2013-06-10 01:32:00,63.0,63.0,-100.00,East,85,4.0,7.0,99,0.00,,,-99.99,,2013-06-10 06:32:00,
2013-06-10 01:42:00,63.0,63.0,-100.00,East,85,4.0,7.0,99,0.00,,,-99.99,,2013-06-10 06:42:00,
2013-06-10 01:52:00,62.0,62.0,-100.00,ESE,115,2.0,6.0,99,0.00,,,-99.99,,2013-06-10 06:52:00,
2013-06-10 02:02:00,62.0,62.0,-100.00,ESE,115,2.0,6.0,99,0.00,,,-99.99,,2013-06-10 07:02:00,
2013-06-10 02:12:00,62.0,62.0,-100.00,ENE,65,1.0,3.0,99,0.00,,,-99.99,,2013-06-10 07:12:00,
2013-06-10 02:22:00,62.0,62.0,-100.00,ENE,65,1.0,3.0,99,0.00,,,-99.99,,2013-06-10 07:22:00,
2013-06-10 02:32:00,62.0,62.0,-100.00,SE,130,2.0,3.0,99,0.00,,,-99.99,,2013-06-10 07:32:00,
2013-06-10 02:42:00,62.0,62.0,-100.00,SE,130,2.0,3.0,99,0.00,,,-99.99,,2013-06-10 07:42:00,
2013-06-10 02:52:00,61.0,61.0,-100.00,SE,135,0.0,2.0,99,0.00,,,-99.99,,2013-06-10 07:52:00,
2013-06-10 03:02:00,61.0,61.0,-100.00,SE,135,0.0,2.0,99,0.00,,,-99.99,,2013-06-10 08:02:00,
2013-06-10 03:12:00,61.0,61.0,-100.00,NNE,30,2.0,3.0,99,0.00,,,-99.99,,2013-06-10 08:12:00,
2013-06-10 03:22:00,61.0,61.0,-100.00,NNE,30,2.0,3.0,99,0.00,,,-99.99,,2013-06-10 08:22:00,
2013-06-10 03:32:00,60.0,60.0,-100.00,SE,130,0.0,1.0,99,0.00,,,-99.99,,2013-06-10 08:32:00,
2013-06-10 03:42:00,60.0,60.0,-100.00,SE,130,0.0,1.0,99,0.00,,,-99.99,,2013-06-10 08:42:00,
2013-06-10 03:52:00,58.0,58.0,-100.00,North,350,3.0,3.0,99,0.00,,,-99.99,,2013-06-10 08:52:00,
2013-06-10 04:02:00,58.0,58.0,-100.00,North,350,3.0,3.0,99,0.00,,,-99.99,,2013-06-10 09:02:00,
2013-06-10 04:12:00,58.0,58.0,-100.00,North,350,4.0,4.0,99,0.00,,,-99.99,,2013-06-10 09:12:00,
2013-06-10 04:22:00,58.0,58.0,-100.00,NNW,345,2.0,5.0,99,0.00,,,-99.99,,2013-06-10 09:22:00,
2013-06-10 04:32:00,59.0,59.0,-100.00,NNE,15,1.0,3.0,99,0.00,,,-99.99,,2013-06-10 09:32:00,
2013-06-10 04:42:00,59.0,59.0,-100.00,NNE,15,1.0,3.0,99,0.00,,,-99.99,,2013-06-10 09:42:00,
2013-06-10 04:53:00,59.0,59.0,-100.00,ENE,75,1.0,1.0,99,0.00,,,-99.99,,2013-06-10 09:53:00,
2013-06-10 05:03:00,59.0,59.0,-100.00,ENE,75,1.0,1.0,99,0.00,,,-99.99,,2013-06-10 10:03:00,
2013-06-10 05:12:00,58.0,58.0,-100.00,North,5,1.0,3.0,99,0.00,,,-99.99,,2013-06-10 10:12:00,
2013-06-10 05:22:00,58.0,58.0,-100.00,NE,50,1.0,2.0,99,0.00,,,-99.99,,2013-06-10 10:22:00,
2013-06-10 05:33:00,59.0,59.0,-100.00,ENE,65,2.0,3.0,99,0.00,,,-99.99,,2013-06-10 10:33:00,
2013-06-10 05:42:00,59.0,59.0,-100.00,ENE,65,2.0,3.0,99,0.00,,,-99.99,,2013-06-10 10:42:00,
2013-06-10 05:52:00,59.0,59.0,-100.00,East,90,1.0,2.0,99,0.00,,,-99.99,,2013-06-10 10:52:00,
2013-06-10 06:03:00,59.0,59.0,-100.00,East,90,1.0,2.0,99,0.00,,,-99.99,,2013-06-10 11:03:00,
2013-06-10 06:12:00,59.0,59.0,-100.00,East,90,1.0,2.0,99,0.00,,,-99.99,,2013-06-10 11:12:00,
2013-06-10 06:22:00,59.0,59.0,-100.00,NNW,345,0.0,1.0,99,0.00,,,-99.99,,2013-06-10 11:22:00,
2013-06-10 06:32:00,59.0,59.0,-100.00,West,260,1.0,1.0,99,0.00,,,-99.99,,2013-06-10 11:32:00,
2013-06-10 06:42:00,59.0,59.0,-100.00,West,260,1.0,1.0,99,0.00,,,-99.99,,2013-06-10 11:42:00,
2013-06-10 06:52:00,59.0,59.0,-100.00,WNW,290,4.0,4.0,99,0.00,,,-99.99,,2013-06-10 11:52:00,
2013-06-10 07:02:00,59.0,59.0,-100.00,WNW,290,4.0,4.0,99,0.00,,,-99.99,,2013-06-10 12:02:00,
2013-06-10 07:12:00,59.0,59.0,-100.00,NW,310,3.0,6.0,99,0.00,,,-99.99,,2013-06-10 12:12:00,
2013-06-10 07:22:00,59.0,59.0,-100.00,NW,310,3.0,6.0,99,0.00,,,-99.99,,2013-06-10 12:22:00,
2013-06-10 07:32:00,59.0,59.0,-100.00,NW,310,3.0,6.0,99,0.00,,,-99.99,,2013-06-10 12:32:00,
2013-06-10 07:42:00,59.0,59.0,-100.00,NW,310,3.0,6.0,99,0.00,,,-99.99,,2013-06-10 12:42:00,
2013-06-10 07:52:00,60.0,60.0,-100.00,North,355,5.0,7.0,99,0.00,,,-99.99,,2013-06-10 12:52:00,
2013-06-10 08:02:00,60.0,60.0,-100.00,North,355,5.0,7.0,99,0.00,,,-99.99,,2013-06-10 13:02:00,
2013-06-10 08:12:00,60.0,60.0,-100.00,North,355,5.0,7.0,99,0.00,,,-99.99,,2013-06-10 13:12:00,
2013-06-10 08:22:00,60.0,60.0,-100.00,NE,35,4.0,6.0,99,0.00,,,-99.99,,2013-06-10 13:22:00,
2013-06-10 08:32:00,61.0,61.0,-100.00,North,350,3.0,4.0,99,0.00,,,-99.99,,2013-06-10 13:32:00,
2013-06-10 08:42:00,61.0,61.0,-100.00,North,350,3.0,4.0,99,0.00,,,-99.99,,2013-06-10 13:42:00,
2013-06-10 08:52:00,61.0,61.0,-100.00,NW,325,4.0,6.0,99,0.00,,,-99.99,,2013-06-10 13:52:00,
2013-06-10 09:02:00,61.0,61.0,-100.00,NW,325,4.0,6.0,99,0.00,,,-99.99,,2013-06-10 14:02:00,
2013-06-10 09:12:00,61.0,61.0,-100.00,NW,325,3.0,6.0,99,0.00,,,-99.99,,2013-06-10 14:12:00,
2013-06-10 09:22:00,61.0,61.0,-100.00,NW,320,2.0,6.0,99,0.00,,,-99.99,,2013-06-10 14:22:00,
2013-06-10 09:32:00,62.0,62.0,-100.00,SSW,210,0.0,3.0,99,0.00,,,-99.99,,2013-06-10 14:32:00,
2013-06-10 09:42:00,62.0,62.0,-100.00,SSW,210,0.0,3.0,99,0.00,,,-99.99,,2013-06-10 14:42:00,
2013-06-10 09:52:00,62.0,62.0,-100.00,NW,315,2.0,4.0,99,0.00,,,-99.99,,2013-06-10 14:52:00,
2013-06-10 10:02:00,62.0,62.0,-100.00,NW,315,2.0,4.0,99,0.00,,,-99.99,,2013-06-10 15:02:00,
2013-06-10 10:12:00,62.0,62.0,-100.00,North,10,2.0,4.0,99,0.00,,,-99.99,,2013-06-10 15:12:00,
2013-06-10 10:22:00,62.0,62.0,-100.00,NNW,335,2.0,6.0,99,0.00,,,-99.99,,2013-06-10 15:22:00,
2013-06-10 10:33:00,63.0,63.0,-100.00,NNW,330,2.0,4.0,99,0.00,,,-99.99,,2013-06-10 15:33:00,
2013-06-10 10:43:00,63.0,63.0,-100.00,NNW,330,2.0,4.0,99,0.00,,,-99.99,,2013-06-10 15:43:00,
2013-06-10 10:53:00,64.0,64.0,-100.00,SSW,195,1.0,4.0,99,0.00,,,-99.99,,2013-06-10 15:53:00,
2013-06-10 11:03:00,64.0,64.0,-100.00,SSW,195,1.0,4.0,99,0.00,,,-99.99,,2013-06-10 16:03:00,
2013-06-10 11:12:00,64.0,64.0,-100.00,NNE,30,2.0,4.0,99,0.00,,,-99.99,,2013-06-10 16:12:00,
2013-06-10 11:23:00,65.0,65.0,-100.00,North,5,0.0,2.0,99,0.00,,,-99.99,,2013-06-10 16:23:00,
2013-06-10 11:33:00,63.0,63.0,-100.00,NW,305,6.0,9.0,99,0.00,,,-99.99,,2013-06-10 16:33:00,
2013-06-10 11:42:00,63.0,63.0,-100.00,NW,305,6.0,9.0,99,0.00,,,-99.99,,2013-06-10 16:42:00,
2013-06-10 11:52:00,65.0,65.0,-100.00,West,280,3.0,6.0,99,0.00,,,-99.99,,2013-06-10 16:52:00,
2013-06-10 12:03:00,65.0,65.0,-100.00,West,280,3.0,6.0,99,0.00,,,-99.99,,2013-06-10 17:03:00,
2013-06-10 12:14:00,65.0,65.0,-100.00,WNW,300,3.0,6.0,99,0.00,,,-99.99,,2013-06-10 17:14:00,
2013-06-10 12:26:00,66.0,66.0,-100.00,WNW,285,4.0,7.0,99,0.00,,,-99.99,,2013-06-10 17:26:00,
2013-06-10 12:38:00,68.0,66.0,-100.00,WSW,255,4.0,7.0,94,0.00,,,-99.99,,2013-06-10 17:38:00,
2013-06-10 12:48:00,68.0,66.0,-100.00,WSW,255,4.0,7.0,94,0.00,,,-99.99,,2013-06-10 17:48:00,
2013-06-10 12:57:00,68.0,66.0,-100.00,West,260,7.0,13.0,91,0.00,,,-99.99,,2013-06-10 17:57:00,
2013-06-10 13:07:00,68.0,66.0,-100.00,West,260,7.0,13.0,91,0.00,,,-99.99,,2013-06-10 18:07:00,
2013-06-10 13:14:00,69.0,65.0,-100.00,West,270,7.0,11.0,89,0.00,,,-99.99,,2013-06-10 18:14:00,
2013-06-10 13:24:00,69.0,65.0,-100.00,WSW,250,8.0,10.0,88,0.00,,,-99.99,,2013-06-10 18:24:00,
2013-06-10 13:35:00,70.0,65.0,-100.00,WSW,255,6.0,11.0,83,0.00,,,-99.99,,2013-06-10 18:35:00,
2013-06-10 13:48:00,70.0,65.0,-100.00,WSW,255,6.0,11.0,83,0.00,,,-99.99,,2013-06-10 18:48:00,
2013-06-10 13:55:00,70.0,64.0,-100.00,West,280,11.0,14.0,82,0.00,,,-99.99,,2013-06-10 18:55:00,
2013-06-10 14:03:00,70.0,64.0,-100.00,West,280,11.0,14.0,82,0.00,,,-99.99,,2013-06-10 19:03:00,
2013-06-10 14:12:00,71.0,65.0,-100.00,West,270,7.0,11.0,80,0.00,,,-99.99,,2013-06-10 19:12:00,
2013-06-10 14:22:00,72.0,65.0,-100.00,WNW,285,6.0,9.0,77,0.00,,,-99.99,,2013-06-10 19:22:00,
2013-06-10 14:33:00,72.0,64.0,-100.00,West,275,7.0,19.0,76,0.00,,,-99.99,,2013-06-10 19:33:00,
2013-06-10 14:42:00,72.0,64.0,-100.00,West,275,7.0,19.0,76,0.00,,,-99.99,,2013-06-10 19:42:00,
2013-06-10 14:52:00,72.0,64.0,-100.00,West,275,10.0,15.0,74,0.00,,,-99.99,,2013-06-10 19:52:00,
2013-06-10 15:03:00,72.0,64.0,-100.00,West,275,10.0,15.0,74,0.00,,,-99.99,,2013-06-10 20:03:00,
2013-06-10 15:12:00,73.0,65.0,-100.00,West,280,6.0,14.0,73,0.00,,,-99.99,,2013-06-10 20:12:00,
2013-06-10 15:22:00,74.0,64.0,-100.00,West,260,8.0,14.0,70,0.00,,,-99.99,,2013-06-10 20:22:00,
2013-06-10 15:32:00,74.0,63.0,-100.00,WNW,295,4.0,15.0,69,0.00,,,-99.99,,2013-06-10 20:32:00,
2013-06-10 15:43:00,74.0,63.0,-100.00,WNW,295,4.0,15.0,69,0.00,,,-99.99,,2013-06-10 20:43:00,
2013-06-10 15:52:00,74.0,63.0,-100.00,West,270,13.0,17.0,68,0.00,,,-99.99,,2013-06-10 20:52:00,
2013-06-10 16:02:00,74.0,63.0,-100.00,West,270,13.0,17.0,68,0.00,,,-99.99,,2013-06-10 21:02:00,
2013-06-10 16:12:00,74.0,63.0,-100.00,West,260,9.0,14.0,67,0.00,,,-99.99,,2013-06-10 21:12:00,
2013-06-10 16:22:00,74.0,63.0,-100.00,West,280,10.0,17.0,68,0.00,,,-99.99,,2013-06-10 21:22:00,
2013-06-10 16:33:00,75.0,63.0,-100.00,WNW,290,9.0,16.0,65,0.00,,,-99.99,,2013-06-10 21:33:00,
2013-06-10 16:43:00,75.0,63.0,-100.00,WNW,290,9.0,16.0,65,0.00,,,-99.99,,2013-06-10 21:43:00,
2013-06-10 16:53:00,76.0,62.0,-100.00,West,275,10.0,14.0,62,0.00,,,-99.99,,2013-06-10 21:53:00,
2013-06-10 17:03:00,76.0,62.0,-100.00,West,275,10.0,14.0,62,0.00,,,-99.99,,2013-06-10 22:03:00,
2013-06-10 17:13:00,76.0,63.0,-100.00,WNW,295,7.0,17.0,63,0.00,,,-99.99,,2013-06-10 22:13:00,
2013-06-10 17:22:00,75.0,62.0,-100.00,WNW,300,9.0,15.0,63,0.00,,,-99.99,,2013-06-10 22:22:00,
2013-06-10 17:33:00,74.0,62.0,-100.00,WNW,295,7.0,13.0,66,0.00,,,-99.99,,2013-06-10 22:33:00,
2013-06-10 17:42:00,74.0,62.0,-100.00,WNW,295,7.0,13.0,66,0.00,,,-99.99,,2013-06-10 22:42:00,
2013-06-10 17:52:00,74.0,61.0,-100.00,NW,310,9.0,16.0,63,0.00,,,-99.99,,2013-06-10 22:52:00,
2013-06-10 18:02:00,74.0,61.0,-100.00,NW,310,9.0,16.0,63,0.00,,,-99.99,,2013-06-10 23:02:00,
2013-06-10 18:12:00,75.0,63.0,-100.00,WNW,285,8.0,12.0,65,0.00,,,-99.99,,2013-06-10 23:12:00,
2013-06-10 18:22:00,76.0,61.0,-100.00,WNW,290,9.0,13.0,59,0.00,,,-99.99,,2013-06-10 23:22:00,
2013-06-10 18:32:00,76.0,62.0,-100.00,West,280,9.0,12.0,60,0.00,,,-99.99,,2013-06-10 23:32:00,
2013-06-10 18:42:00,76.0,62.0,-100.00,West,280,9.0,12.0,60,0.00,,,-99.99,,2013-06-10 23:42:00,
2013-06-10 18:52:00,76.0,61.0,-100.00,NNW,330,7.0,11.0,59,0.00,,,-99.99,,2013-06-10 23:52:00,
2013-06-10 19:02:00,76.0,61.0,-100.00,NNW,330,7.0,11.0,59,0.00,,,-99.99,,2013-06-11 00:02:00,
2013-06-10 19:12:00,75.0,61.0,-100.00,NW,310,6.0,9.0,62,0.00,,,-99.99,,2013-06-11 00:12:00,
2013-06-10 19:22:00,75.0,62.0,-100.00,NNW,335,7.0,12.0,63,0.00,,,-99.99,,2013-06-11 00:22:00,
2013-06-10 19:32:00,75.0,62.0,-100.00,NNW,330,7.0,11.0,63,0.00,,,-99.99,,2013-06-11 00:32:00,
2013-06-10 19:42:00,75.0,62.0,-100.00,NNW,330,7.0,11.0,63,0.00,,,-99.99,,2013-06-11 00:42:00,
2013-06-10 19:52:00,74.0,62.0,-100.00,NNW,335,3.0,7.0,64,0.00,,,-99.99,,2013-06-11 00:52:00,
2013-06-10 20:02:00,74.0,62.0,-100.00,NNW,335,3.0,7.0,64,0.00,,,-99.99,,2013-06-11 01:02:00,
2013-06-10 20:12:00,74.0,62.0,-100.00,NW,315,4.0,7.0,65,0.00,,,-99.99,,2013-06-11 01:12:00,
2013-06-10 20:22:00,74.0,62.0,-100.00,North,5,2.0,4.0,67,0.00,,,-99.99,,2013-06-11 01:22:00,
2013-06-10 20:32:00,72.0,62.0,-100.00,NNW,340,3.0,4.0,71,0.00,,,-99.99,,2013-06-11 01:32:00,
2013-06-10 20:42:00,72.0,62.0,-100.00,NNW,340,3.0,4.0,71,0.00,,,-99.99,,2013-06-11 01:42:00,
2013-06-10 20:52:00,70.0,63.0,-100.00,NW,325,4.0,4.0,77,0.00,,,-99.99,,2013-06-11 01:52:00,
2013-06-10 21:02:00,70.0,63.0,-100.00,NW,325,4.0,4.0,77,0.00,,,-99.99,,2013-06-11 02:02:00,
2013-06-10 21:12:00,69.0,63.0,-100.00,NNW,335,4.0,4.0,79,0.00,,,-99.99,,2013-06-11 02:12:00,
2013-06-10 21:22:00,69.0,63.0,-100.00,NNW,330,3.0,4.0,79,0.00,,,-99.99,,2013-06-11 02:22:00,
2013-06-10 21:32:00,69.0,63.0,-100.00,NNW,335,2.0,4.0,81,0.00,,,-99.99,,2013-06-11 02:32:00,
2013-06-10 21:42:00,69.0,63.0,-100.00,NNW,335,2.0,4.0,81,0.00,,,-99.99,,2013-06-11 02:42:00,
2013-06-10 21:52:00,68.0,62.0,-100.00,North,355,0.0,2.0,82,0.00,,,-99.99,,2013-06-11 02:52:00,
2013-06-10 22:02:00,68.0,62.0,-100.00,North,355,0.0,2.0,82,0.00,,,-99.99,,2013-06-11 03:02:00,
2013-06-10 22:12:00,68.0,62.0,-100.00,North,355,0.0,2.0,82,0.00,,,-99.99,,2013-06-11 03:12:00,
2013-06-10 22:22:00,65.0,63.0,-100.00,NW,315,2.0,2.0,91,0.00,,,-99.99,,2013-06-11 03:22:00,
2013-06-10 22:32:00,64.0,62.0,-100.00,SW,235,0.0,0.0,94,0.00,,,-99.99,,2013-06-11 03:32:00,
2013-06-10 22:43:00,64.0,62.0,-100.00,SW,235,0.0,0.0,94,0.00,,,-99.99,,2013-06-11 03:43:00,
2013-06-10 22:53:00,63.0,62.0,-100.00,West,270,0.0,0.0,96,0.00,,,-99.99,,2013-06-11 03:53:00,
2013-06-10 23:03:00,63.0,62.0,-100.00,West,270,0.0,0.0,96,0.00,,,-99.99,,2013-06-11 04:03:00,
2013-06-10 23:12:00,63.0,63.0,-100.00,NE,35,0.0,0.0,97,0.00,,,-99.99,,2013-06-11 04:12:00,
2013-06-10 23:23:00,63.0,63.0,-100.00,NNE,30,0.0,1.0,97,0.00,,,-99.99,,2013-06-11 04:23:00,
2013-06-10 23:33:00,63.0,62.0,-100.00,East,100,0.0,0.0,98,0.00,,,-99.99,,2013-06-11 04:33:00,
2013-06-10 23:42:00,63.0,62.0,-100.00,East,100,0.0,0.0,98,0.00,,,-99.99,,2013-06-11 04:42:00,
2013-06-10 23:52:00,61.0,61.0,-100.00,NNW,345,0.0,0.0,99,0.00,,,-99.99,,2013-06-11 04:52:00,